Wind_Speed
12 12 12 13 14 14 15 14 15 15 16 18 21 21 21 22 20 16 15 14 13 12 13 14 13 13 13 13 12 12 11 11 12 12 12 12 11 11 10 9 8 7 6 6 7 8 7 7 7 8 9 10 10 11 12 12 12 12 13 13 13 14 15 15 15 16 17 19 21 23 25 26 27 29 30 31 32 34 35 36 37 39 41 41 42
14 14 13 14 15 15 15 15 15 15 16 19 22 22 22 21 18 16 15 14 13 12 13 13 13 13 13 12 12 12 12 12 13 13 13 12 12 11 10 8 7 6 6 6 7 7 6 6 7 8 8 9 10 10 11 11 11 12 12 12 12 13 14 14 14 15 16 17 20 23 25 26 27 29 29 30 32 33 35 35 36 37 38 39 40
15 15 14 14 15 15 15 15 15 16 17 21 23 23 22 20 18 16 14 13 13 13 13 13 13 13 13 12 12 12 13 14 14 14 14 13 12 11 9 8 7 6 6 6 6 6 5 6 6 7 8 9 9 10 10 10 11 11 11 11 12 13 13 13 13 14 16 18 20 23 24 26 27 28 29 30 31 32 34 35 35 36 37 39 40
14 15 15 14 15 16 15 15 16 17 20 23 24 23 21 20 19 17 15 14 15 14 14 14 14 13 13 13 13 14 14 15 15 15 14 13 12 11 9 8 7 6 6 7 6 5 5 5 6 6 7 8 8 9 9 9 10 10 11 11 12 12 13 13 13 14 16 19 21 23 24 25 27 27 28 29 30 31 33 34 36 37 38 39 41
14 14 15 14 14 15 15 16 17 19 22 25 25 24 21 21 20 18 16 15 15 14 14 14 13 13 13 14 14 15 16 16 16 15 15 14 12 11 9 8 7 7 7 7 6 5 4 4 5 6 6 7 7 8 9 9 10 10 11 12 12 13 13 14 14 16 18 20 21 22 23 24 25 26 28 29 30 31 33 34 37 39 41 41 42
15 15 15 14 14 14 15 16 18 22 25 26 26 26 23 22 21 18 16 16 15 14 14 13 13 14 14 15 15 16 16 16 16 16 15 14 12 11 9 8 8 7 7 7 5 4 3 3 4 5 5 6 7 8 8 9 10 11 11 12 13 13 14 14 15 17 18 20 20 21 22 23 24 25 26 28 30 32 34 35 37 39 42 44 44
17 17 16 15 14 14 16 18 20 23 26 26 27 27 26 23 21 18 17 17 15 14 14 14 14 14 15 15 16 16 16 17 16 16 15 14 13 11 10 9 8 8 8 7 5 3 3 3 3 4 5 6 7 7 8 9 10 11 11 12 13 13 14 15 16 17 18 19 20 20 21 22 24 25 26 27 29 31 34 36 38 39 41 43 44
19 18 18 16 15 15 16 20 22 23 25 26 28 29 28 24 21 20 18 17 15 15 15 14 15 15 15 15 16 16 17 17 17 16 15 14 13 11 10 10 9 9 8 7 4 3 2 2 2 3 4 5 6 7 8 9 10 10 11 12 12 13 14 15 16 17 18 19 20 20 21 22 23 24 25 27 28 31 33 35 37 38 39 41 42
20 19 19 17 16 16 17 21 23 24 25 26 28 29 28 25 23 22 20 18 16 15 15 15 16 16 16 16 17 17 18 17 17 16 15 14 13 12 12 11 10 9 8 6 4 3 2 2 2 2 3 4 5 6 7 8 9 9 10 11 12 13 14 16 17 18 18 19 20 20 21 22 23 24 26 27 29 30 32 33 35 36 37 38 40
21 20 19 18 18 17 18 21 23 25 25 25 27 28 26 25 25 24 22 20 18 16 16 16 16 17 17 17 17 18 18 17 17 16 16 15 14 13 13 12 11 10 8 6 4 4 3 2 2 2 3 4 5 5 6 7 8 9 10 11 12 14 15 16 18 19 20 21 21 21 22 23 25 26 26 28 29 30 31 32 33 35 36 37 38
23 21 20 18 19 19 19 21 23 25 26 26 27 26 26 27 27 26 24 22 20 19 18 18 18 19 19 19 19 19 18 18 18 17 16 16 15 15 14 12 11 10 8 7 5 5 4 3 3 2 3 4 4 5 5 6 6 8 9 10 12 14 16 17 19 20 21 22 23 23 24 25 26 27 27 28 28 29 30 32 32 33 35 37 38
24 22 20 19 20 20 20 21 22 24 26 27 27 27 27 28 29 28 27 25 24 23 22 21 21 21 20 20 20 19 19 19 19 19 18 17 17 16 15 13 12 10 9 7 6 6 5 4 4 4 4 4 4 5 5 5 6 7 9 10 12 14 16 18 19 21 22 23 24 25 26 27 28 28 29 29 29 29 30 30 31 32 34 35 37
25 23 21 21 21 20 21 21 21 22 24 26 27 27 28 28 28 28 28 28 27 26 25 24 23 23 22 22 21 20 21 21 21 20 20 20 19 17 15 13 12 11 9 8 7 7 6 6 5 5 5 4 4 4 4 4 5 7 8 10 12 14 16 17 19 21 22 24 25 27 28 29 30 30 31 31 30 30 30 30 30 31 33 34 35
26 24 23 22 22 21 21 21 22 22 24 25 26 27 28 28 28 28 28 28 27 27 26 25 24 24 23 22 22 22 22 22 22 22 22 22 20 17 15 13 12 11 10 9 9 9 8 7 7 6 6 5 5 5 4 4 5 6 7 9 11 13 15 17 19 21 23 25 27 28 30 31 32 32 32 32 32 32 31 31 30 31 31 33 34
27 25 24 23 23 22 22 22 22 23 24 25 26 28 29 29 29 28 28 27 27 27 26 25 25 25 24 23 23 23 24 24 24 24 24 23 20 17 15 14 13 11 11 11 11 10 9 9 8 8 7 6 6 6 6 6 6 7 8 9 11 14 16 18 20 22 24 26 28 30 31 32 32 33 33 33 33 32 31 31 31 31 31 31 32
29 27 26 25 23 22 22 22 22 22 22 24 26 28 29 29 29 29 28 28 27 27 26 26 26 25 24 24 23 24 25 26 26 27 26 23 19 17 16 14 13 12 12 12 12 11 11 10 10 9 7 7 7 7 7 7 7 7 9 11 13 15 17 19 20 22 24 26 28 29 30 31 32 33 33 34 34 33 31 31 32 32 32 32 32
29 27 26 25 24 23 23 22 22 22 22 23 25 27 28 28 29 29 28 28 27 27 26 26 25 24 24 23 23 25 26 26 27 29 27 23 21 19 17 15 14 14 15 15 14 13 12 12 11 9 8 8 8 8 8 8 8 8 10 12 14 16 17 18 19 21 23 24 25 26 28 30 31 32 33 34 34 34 34 33 33 33 34 35 34
29 28 27 26 25 25 24 23 22 22 23 24 25 26 27 28 28 29 29 28 28 28 27 25 24 24 23 21 22 25 26 26 27 29 28 24 21 19 18 16 15 16 17 16 15 14 14 13 12 10 9 9 8 9 9 9 8 8 10 12 14 16 17 18 19 21 22 23 24 26 28 30 31 31 32 33 34 34 35 35 34 33 34 34 35
28 28 27 26 26 25 24 24 23 24 24 25 25 26 27 28 28 29 29 29 29 28 27 26 25 23 20 20 23 26 27 27 28 29 28 24 21 21 21 18 17 18 18 17 16 16 15 14 13 11 10 9 9 9 9 9 8 8 10 12 14 16 17 18 19 21 21 22 24 26 27 28 29 30 31 32 33 35 35 35 34 34 33 33 34
28 28 27 27 27 26 25 25 25 25 26 26 27 27 27 28 29 29 30 31 31 31 30 27 25 22 21 23 25 27 27 29 29 29 28 24 23 24 21 18 18 20 19 18 17 17 16 15 14 12 11 10 10 10 10 9 8 8 10 11 13 15 17 18 19 19 20 21 23 24 25 26 28 29 30 32 33 33 33 33 34 34 33 33 33
27 27 27 27 27 26 25 25 26 26 27 27 27 27 27 28 29 30 31 31 30 29 27 25 23 23 24 25 26 27 28 29 29 28 26 25 26 25 21 19 20 20 20 19 18 18 17 16 15 13 12 12 11 11 10 10 9 9 9 11 13 15 16 17 18 19 19 20 21 22 23 25 26 28 30 31 31 31 32 33 34 33 33 34 33
26 27 27 28 28 25 24 24 24 24 24 25 25 25 26 28 28 28 30 29 25 21 21 22 23 25 26 27 27 27 27 28 28 27 26 27 28 25 21 20 22 21 21 21 20 20 19 17 16 15 14 13 13 12 11 11 10 9 10 11 12 14 16 17 18 18 19 19 20 21 23 24 25 27 28 29 29 30 32 32 32 32 33 33 32
24 24 25 25 23 21 21 23 23 22 21 21 22 24 25 25 25 25 26 25 22 19 19 21 23 25 27 27 27 26 26 27 27 28 29 29 28 23 21 22 22 21 22 22 21 21 20 18 17 16 15 14 14 13 13 12 11 10 10 11 13 15 16 18 18 19 19 19 20 21 22 23 25 26 26 27 28 30 31 31 31 32 31 30 31
22 22 22 21 20 20 21 23 23 22 22 21 22 23 22 21 21 21 21 21 20 19 19 21 22 24 25 26 25 25 25 26 27 28 29 29 26 23 23 24 23 23 22 22 22 22 20 18 18 17 16 16 15 15 14 13 12 12 11 12 13 15 16 18 19 19 19 19 20 21 22 23 24 25 26 27 28 29 29 29 29 29 28 28 30
22 23 22 21 22 22 23 24 23 23 23 22 21 21 20 18 19 20 21 21 20 19 19 20 21 22 23 24 24 23 23 25 28 29 29 27 26 25 25 25 25 24 24 23 23 21 18 18 19 19 18 17 17 16 16 15 14 13 13 13 14 16 17 18 19 19 19 20 20 21 22 22 23 24 25 26 27 28 28 28 28 28 27 28 28
23 24 24 23 23 24 24 24 24 22 22 21 20 19 18 19 20 21 21 22 21 20 20 20 21 22 22 23 23 23 24 26 27 28 28 27 27 26 26 25 25 25 25 24 22 20 18 19 20 20 19 19 18 17 17 16 15 14 14 14 15 17 18 18 19 19 20 20 20 20 21 22 22 23 24 26 26 27 27 28 29 29 30 30 29
20 22 23 23 24 25 25 25 23 22 22 21 21 20 19 19 20 20 21 22 23 22 22 21 21 22 22 23 23 23 24 26 27 28 28 28 27 26 26 26 25 25 25 24 22 21 21 22 22 21 21 21 19 18 18 17 16 15 15 15 16 17 17 18 19 19 20 20 20 20 21 21 22 23 23 24 25 26 27 28 29 30 31 32 31
19 20 22 23 25 26 25 24 23 23 23 22 22 21 20 20 19 19 21 23 23 23 22 21 21 22 23 23 23 24 25 26 26 27 28 28 27 27 26 26 26 26 25 24 24 24 24 23 23 23 23 22 21 19 19 18 17 16 16 16 17 18 18 19 19 20 21 21 21 21 21 21 21 21 22 23 24 25 26 27 28 29 30 31 30
21 21 23 25 25 25 25 24 24 24 24 23 23 22 21 21 21 20 21 23 23 23 23 22 22 23 24 24 24 25 26 27 27 27 28 28 28 28 27 27 27 27 27 26 26 25 25 24 24 24 24 23 22 21 20 19 19 18 17 17 17 19 20 21 21 21 22 22 22 22 21 21 21 21 21 22 23 24 25 26 27 28 28 29 30
22 23 23 24 25 25 25 25 24 24 24 23 22 21 22 23 23 22 23 24 24 24 24 24 24 25 25 26 27 27 28 28 29 29 29 29 30 30 29 29 29 29 28 27 27 26 26 25 25 25 25 24 23 22 21 21 20 19 19 18 18 19 20 21 21 22 22 22 22 22 22 22 22 21 21 21 21 22 24 25 26 27 27 28 28
22 22 22 22 22 24 25 25 24 24 24 23 22 22 23 24 24 25 26 26 24 24 24 25 26 27 29 29 30 29 29 30 31 31 30 31 32 32 31 31 30 29 28 28 28 27 27 27 26 26 25 25 24 23 22 22 21 20 19 20 20 20 20 21 22 22 23 23 23 23 23 22 22 21 21 21 21 22 24 25 26 27 26 26 27
20 21 22 23 23 24 25 25 24 25 25 24 24 24 25 24 24 26 27 26 25 25 26 26 28 30 31 32 32 32 31 31 32 32 32 33 34 34 34 32 31 30 30 29 29 29 28 27 27 26 26 26 26 24 23 23 22 21 20 20 21 21 22 22 22 23 24 23 23 23 22 22 22 21 21 22 23 23 24 25 26 26 26 25 27
20 21 23 23 24 24 25 25 26 27 26 25 26 27 27 25 23 25 26 25 25 26 26 27 29 31 33 35 35 33 31 32 33 33 34 36 37 36 34 32 32 31 31 31 30 30 29 27 27 27 27 27 26 25 24 23 22 22 21 21 22 22 23 23 23 24 24 23 23 23 23 23 23 23 23 23 23 23 24 25 25 25 25 26 27
21 21 22 23 24 24 25 26 27 28 28 28 29 30 29 25 23 25 25 24 24 26 27 28 30 32 34 37 36 34 32 34 36 37 38 39 38 36 34 32 32 32 32 32 31 30 29 28 27 27 28 28 27 26 25 24 23 22 22 22 22 22 23 24 25 25 25 24 24 24 24 24 24 23 23 23 23 23 24 25 25 25 26 27 28
21 20 21 22 23 23 25 27 28 28 28 29 29 31 31 28 26 27 26 24 26 28 28 29 31 34 35 37 38 37 37 38 40 40 40 39 37 35 34 33 33 32 32 32 31 30 29 28 27 27 28 27 27 27 26 25 23 23 23 22 22 23 23 24 25 25 25 24 23 23 23 23 23 23 24 24 24 23 24 24 24 26 27 29 29
21 20 19 20 22 23 24 26 27 26 27 29 30 32 32 30 29 28 26 25 28 31 31 31 33 35 37 40 41 40 40 40 41 41 39 38 37 35 34 33 33 32 31 31 30 29 28 28 27 27 27 27 26 26 26 25 24 23 23 23 23 23 24 25 25 25 25 24 23 22 22 23 23 24 24 23 21 20 21 21 23 27 29 29 30
21 20 19 19 21 22 23 25 26 27 28 30 31 31 31 31 31 29 27 27 31 34 35 34 33 34 37 40 40 38 37 38 39 39 38 36 35 34 33 33 32 32 31 30 29 29 28 27 27 26 26 26 26 26 26 25 25 24 24 23 23 24 25 25 25 25 25 24 23 23 23 23 23 24 23 20 18 19 20 21 25 29 30 31 32
22 21 20 20 21 22 23 25 27 28 30 31 31 31 32 33 33 31 31 31 31 32 32 32 31 32 35 37 37 35 34 35 37 38 37 36 34 32 32 32 31 31 30 29 28 27 26 26 25 25 25 25 25 25 25 25 24 23 24 24 24 25 25 25 25 25 25 25 25 24 23 22 22 23 23 22 22 22 23 24 28 32 33 33 34
24 23 22 21 22 22 24 26 28 29 31 32 33 34 34 34 33 32 31 30 29 28 28 27 28 31 33 35 35 34 33 34 37 37 37 36 34 32 31 31 30 30 28 27 27 26 25 24 24 24 24 24 24 24 24 24 23 23 23 24 25 26 26 26 26 26 26 26 25 24 23 22 22 23 24 25 25 25 25 28 31 33 34 35 36
24 23 22 22 23 24 25 27 28 30 32 33 34 35 34 32 29 28 28 28 27 26 26 25 25 29 31 32 31 31 31 32 35 37 38 37 36 34 33 32 30 29 27 26 26 25 24 24 24 23 23 24 23 23 23 23 23 23 24 25 25 26 26 26 26 26 26 25 25 24 24 23 23 23 25 26 27 28 29 31 32 33 34 35 36
24 23 22 23 24 24 25 26 27 29 31 32 33 34 33 31 28 26 28 29 27 24 23 22 23 26 28 27 26 27 27 29 33 37 38 38 37 35 34 32 30 29 28 27 26 26 25 24 23 22 22 22 22 22 23 23 24 24 25 26 26 26 25 26 26 26 26 26 25 25 25 25 25 26 26 27 28 29 30 31 32 32 34 35 36
23 23 23 23 23 23 24 23 24 27 30 31 32 33 33 31 27 27 28 29 25 22 20 20 20 23 25 24 24 25 26 27 30 34 36 36 35 34 32 31 31 30 29 27 26 26 24 21 20 20 21 21 22 23 23 24 24 25 26 26 26 25 25 25 26 26 26 26 25 25 26 26 27 28 29 30 31 31 32 32 33 34 36 37 38
23 23 23 24 24 23 23 21 21 23 27 29 31 32 31 27 25 25 26 26 23 20 19 19 20 21 22 22 22 24 25 26 28 30 32 33 32 32 32 31 30 30 29 28 26 24 21 20 19 20 21 21 22 22 23 24 25 26 26 25 24 24 25 26 26 25 25 25 25 26 26 27 28 29 30 31 33 34 35 35 36 37 38 40 41
24 24 24 24 24 23 22 20 19 21 24 26 28 29 28 26 25 26 26 24 20 19 20 21 21 21 21 21 22 24 25 26 27 29 30 30 31 31 31 29 29 30 30 28 26 24 22 20 20 20 20 21 22 23 24 25 25 25 24 24 24 25 26 25 25 24 24 24 25 26 26 27 29 30 32 33 34 35 36 37 38 39 40 42 44
27 27 26 26 25 23 21 20 18 19 22 26 28 28 28 28 27 26 23 20 19 19 21 22 22 21 21 21 22 23 25 26 27 28 29 29 29 30 29 28 28 30 29 27 25 23 22 20 20 20 20 22 23 24 24 24 24 24 23 23 24 24 24 24 23 24 24 25 25 26 27 28 30 31 33 34 35 36 37 38 40 41 43 46 47
29 28 28 27 25 23 22 21 20 19 22 26 29 28 28 27 25 22 19 19 21 23 24 24 23 22 22 22 23 24 26 28 28 28 28 28 28 27 27 27 28 29 28 26 24 22 20 19 20 21 22 23 23 23 23 24 23 23 22 22 23 23 23 23 24 24 25 25 26 26 28 30 31 33 34 35 36 37 39 40 43 45 47 48 48
28 27 27 27 25 24 24 23 22 21 22 25 27 26 25 23 21 20 21 22 24 25 25 24 23 22 22 23 24 25 27 28 27 26 26 26 25 25 26 27 27 26 24 22 20 19 19 20 21 22 22 22 22 22 23 24 23 22 21 22 22 23 23 23 24 24 25 26 27 28 30 32 33 34 35 36 38 40 42 43 46 48 49 49 48
23 22 22 22 22 23 23 23 22 23 24 24 24 23 21 21 22 23 23 23 23 23 23 23 22 21 22 23 25 26 27 27 26 26 26 25 25 25 25 24 23 21 20 19 19 19 20 21 22 22 22 21 22 23 23 23 22 21 21 21 22 22 23 23 24 24 25 27 29 31 32 33 34 35 37 39 40 42 44 47 49 51 50 49 48
18 18 17 17 18 19 20 20 21 23 23 23 22 21 22 23 24 24 23 22 22 22 23 23 22 22 23 24 26 27 28 28 28 28 27 27 26 24 22 20 19 19 19 19 19 20 21 22 22 22 21 22 22 22 22 22 22 22 22 22 22 22 22 23 24 25 27 29 31 32 33 35 37 39 40 41 43 45 48 51 51 50 49 49 50
11 12 14 15 15 16 17 18 19 20 20 20 20 21 21 21 21 21 21 22 23 24 25 24 24 23 23 24 25 26 26 26 26 25 24 23 21 20 18 17 18 19 19 19 19 20 21 22 22 22 21 21 22 21 21 21 22 22 22 22 22 22 23 24 26 27 29 31 33 35 36 38 40 41 43 45 47 50 51 51 50 50 51 53 54
9 10 12 13 14 16 17 18 18 18 18 18 19 19 19 20 20 21 22 22 23 23 22 21 20 19 19 19 19 18 18 17 17 16 16 16 15 14 15 15 16 17 17 18 19 20 21 22 22 22 21 21 21 20 21 21 22 22 22 22 23 24 25 27 29 31 32 34 36 38 39 41 43 45 47 49 50 50 49 50 51 53 54 55 55
Wind_Direction
217 226 230 234 232 220 218 224 226 221 212 203 200 197 189 177 173 173 177 190 204 215 227 228 224 224 224 226 230 234 240 247 253 259 264 269 270 269 268 268 274 282 291 306 314 318 324 332 339 348 354 354 357 2 4 1 358 357 358 358 358 1 4 2 0 3 4 3 4 5 6 5 5 6 5 3 2 2 2 1 360 359 359 357 356
222 231 229 228 228 220 221 225 221 218 208 197 191 182 172 170 177 185 195 206 213 221 227 226 226 228 229 232 234 237 244 251 257 262 266 268 267 264 263 265 271 279 291 304 310 315 326 334 342 352 355 355 1 4 1 358 356 357 358 357 359 3 3 359 0 4 4 4 6 7 6 4 5 6 5 3 2 2 2 2 0 1 1 359 358
226 231 225 224 225 222 226 227 221 215 201 190 186 176 169 175 186 193 204 215 220 223 224 224 227 228 229 233 236 241 249 255 260 264 266 266 263 261 260 263 269 277 289 300 304 312 325 335 346 355 355 357 3 3 357 355 355 356 354 354 358 2 359 355 358 2 3 5 8 8 6 4 4 4 3 2 2 2 3 1 360 2 4 1 0
226 229 224 222 223 223 226 226 219 207 194 187 184 176 173 182 192 200 211 218 218 219 220 223 226 228 232 238 242 249 255 258 261 263 264 263 260 258 258 261 266 274 285 293 298 308 323 336 349 355 356 0 2 358 353 353 353 352 350 353 358 359 354 351 356 2 5 8 8 6 4 3 2 1 359 360 1 2 4 2 360 2 4 4 3
222 226 223 219 220 221 223 221 213 199 188 183 180 178 181 189 197 206 213 215 215 216 220 224 229 233 239 244 250 254 257 259 262 262 262 260 257 256 257 260 264 272 281 285 290 303 322 337 350 355 357 360 357 353 352 351 349 347 348 353 356 355 351 350 357 4 7 8 7 4 2 0 0 360 357 357 358 1 3 3 2 2 3 4 6
218 221 218 214 216 218 218 215 204 192 186 182 180 183 190 197 204 210 212 213 213 216 222 228 233 239 244 249 253 256 258 259 261 261 260 256 254 253 254 256 260 269 275 277 281 298 319 335 346 355 358 356 353 350 350 347 345 346 349 353 354 352 350 352 359 5 7 6 5 2 0 358 357 358 357 357 358 360 2 3 5 4 2 3 6
213 215 212 210 214 216 213 208 198 190 188 186 184 188 194 201 209 211 212 214 216 220 227 233 238 244 248 252 255 257 259 260 260 259 256 253 251 250 250 253 257 264 268 268 272 287 307 326 342 354 355 352 349 347 347 344 343 345 349 353 353 351 352 355 360 4 5 3 1 359 358 357 357 356 356 358 0 1 2 3 5 6 4 3 4
210 212 210 208 212 214 209 205 198 192 191 190 190 192 195 202 212 215 216 219 222 228 235 240 244 248 252 255 257 258 259 259 258 257 253 250 248 246 246 248 252 258 261 259 262 270 284 308 334 348 348 346 344 342 342 340 341 346 350 353 353 353 356 358 1 4 3 1 360 356 354 356 357 357 356 358 1 2 3 3 3 5 6 4 3
208 210 210 209 211 213 209 205 200 198 197 195 195 196 198 205 215 219 220 222 226 233 240 245 250 254 257 258 258 258 258 258 258 255 251 247 244 243 244 244 247 253 253 251 250 250 258 278 310 330 335 335 335 337 337 337 343 349 352 354 355 357 360 2 5 6 5 3 0 356 354 355 357 358 358 360 2 2 3 3 3 3 5 5 5
208 209 210 210 211 213 211 207 204 203 203 201 202 203 204 210 218 222 224 225 230 237 244 251 256 258 260 261 259 259 259 258 256 252 247 243 240 240 240 240 244 247 246 244 239 235 243 252 267 294 309 316 324 329 331 337 346 351 356 358 358 1 4 7 9 8 7 6 3 359 358 358 358 0 2 2 2 1 2 3 2 2 3 4 6
210 210 211 211 212 213 212 210 208 208 209 210 211 211 212 216 221 224 226 229 234 242 250 256 260 261 262 261 259 258 258 255 251 246 241 238 236 236 236 237 240 242 239 236 229 227 235 238 245 264 283 300 313 320 327 340 348 353 359 0 0 4 7 9 11 10 9 9 7 6 5 3 3 3 3 4 2 1 2 2 0 1 2 2 6
213 214 213 212 213 214 213 213 212 211 213 216 218 219 220 222 225 227 231 235 240 247 253 257 260 262 262 260 259 257 254 251 247 242 237 233 231 231 232 234 238 238 233 227 221 224 230 231 238 253 267 284 299 310 323 339 346 355 2 2 3 8 9 10 10 9 10 9 8 10 11 10 9 6 4 4 2 1 3 1 360 2 2 2 5
215 216 215 214 215 215 215 216 217 216 218 221 222 223 225 227 229 232 235 239 244 249 253 256 259 262 261 260 258 255 253 251 247 241 236 232 228 226 229 233 237 236 229 221 218 222 225 226 231 241 254 270 283 295 310 329 342 354 1 2 6 10 10 11 10 8 8 8 8 11 12 12 12 10 7 5 2 2 2 360 0 2 2 3 5
217 218 218 218 218 218 217 218 219 220 222 224 225 227 229 230 233 235 238 241 246 249 252 255 259 261 261 259 257 256 253 249 244 238 233 229 225 222 226 232 235 233 226 220 220 222 222 225 229 237 248 260 271 280 290 307 323 336 346 353 1 5 6 8 8 6 5 5 6 9 9 10 11 10 10 7 3 3 0 358 0 2 2 4 5
220 221 220 220 221 221 220 220 221 222 224 226 228 229 230 232 235 237 240 243 246 248 252 255 258 260 260 260 259 257 252 247 241 235 230 227 222 218 222 229 232 231 227 223 222 222 222 224 230 237 246 257 269 274 281 293 308 325 340 350 357 1 4 6 6 4 2 3 5 6 6 7 8 9 9 7 6 4 0 358 0 1 2 5 5
222 222 222 222 223 223 223 223 225 226 227 227 229 230 232 234 236 238 241 243 246 249 252 254 257 258 258 259 259 255 251 247 241 234 228 224 219 216 219 225 229 231 230 226 223 222 223 225 230 237 244 256 266 274 283 294 310 330 345 355 358 359 1 4 3 0 0 3 4 3 2 3 5 6 6 5 6 5 2 3 2 360 0 3 5
222 224 224 223 224 225 226 226 227 229 229 229 230 232 233 235 237 239 242 245 247 250 252 255 257 256 256 259 259 254 251 247 241 236 231 222 214 214 219 222 228 232 229 225 223 222 223 225 230 235 242 253 264 274 284 295 313 333 348 357 357 354 357 359 357 357 360 0 358 358 359 0 1 2 3 4 4 3 4 6 5 2 2 1 3
223 226 227 225 226 227 228 229 230 231 231 232 234 235 236 236 238 241 244 246 248 250 251 253 253 254 257 259 254 250 249 244 238 239 238 227 215 216 221 224 230 232 227 223 223 223 223 226 229 233 240 250 262 274 283 295 314 332 349 356 352 350 352 352 353 356 356 353 353 358 0 0 360 0 1 3 3 3 5 6 5 6 5 1 2
224 227 229 227 228 229 230 230 232 233 234 235 236 237 238 239 240 241 244 246 247 248 248 249 250 252 253 251 246 245 243 238 236 239 237 228 219 219 224 227 230 228 224 222 223 223 225 226 229 233 239 249 260 270 279 293 309 328 346 350 347 346 346 347 351 352 348 348 355 360 360 359 359 0 1 3 3 4 5 4 4 7 7 5 4
225 228 229 229 230 232 232 232 233 234 236 237 238 239 240 242 242 242 244 246 246 246 245 243 244 245 243 242 243 243 240 237 238 238 233 224 219 223 228 231 229 226 224 223 224 225 226 227 229 233 239 248 258 266 276 289 304 323 338 343 343 342 340 342 346 345 342 349 356 357 357 358 359 0 2 4 4 4 4 4 5 6 5 8 9
227 229 230 232 233 233 234 235 235 237 239 240 242 244 245 247 247 246 247 248 250 251 247 240 240 245 247 246 245 244 242 240 240 236 227 218 220 226 230 228 226 225 224 224 225 227 228 228 230 234 239 246 255 263 272 284 297 313 328 335 337 335 335 339 340 338 343 351 353 354 356 358 358 1 4 4 4 4 4 5 7 6 6 8 9
231 230 228 229 230 229 232 237 239 241 243 245 246 246 247 249 250 250 253 256 258 256 247 243 247 253 254 251 247 244 243 241 237 230 220 218 224 230 229 225 225 227 225 224 225 227 230 231 231 234 239 245 253 261 269 279 291 304 317 327 329 329 333 335 334 336 345 350 350 352 355 356 358 2 4 3 3 5 7 7 6 6 8 9 6
234 230 225 224 223 224 229 235 239 242 243 244 245 245 246 248 249 252 256 258 258 251 245 248 252 253 252 249 245 244 243 239 233 224 217 221 229 230 226 225 227 227 227 227 227 229 231 232 232 235 240 245 253 260 267 275 285 296 309 319 324 328 331 331 330 336 344 347 347 350 352 354 358 1 1 2 4 7 8 7 6 7 8 6 6
234 234 233 228 224 228 234 238 240 241 240 241 243 244 245 245 245 249 250 249 247 245 245 249 252 253 251 246 244 243 240 234 228 221 221 227 231 227 225 227 227 225 227 230 231 232 234 233 233 237 241 245 253 260 265 272 281 292 304 313 320 325 327 328 331 337 342 344 345 347 349 353 356 358 359 2 5 8 8 7 6 8 7 6 10
241 245 246 236 230 235 242 244 245 244 242 243 244 244 243 239 239 244 245 243 244 245 247 251 253 252 248 242 239 238 235 230 226 224 227 230 228 225 227 231 230 228 228 231 233 237 239 237 236 239 242 246 253 258 264 271 278 288 300 309 316 322 325 327 331 336 338 341 343 344 347 350 352 354 357 0 4 7 6 4 5 6 6 8 14
249 251 250 241 233 236 242 246 248 247 244 243 244 243 240 238 240 243 244 245 247 249 252 254 254 250 243 236 233 232 231 231 230 229 230 228 226 227 230 233 234 233 232 233 235 236 238 238 239 241 243 246 252 258 264 270 277 286 297 306 313 318 321 325 330 334 336 338 340 341 344 346 348 352 356 358 1 3 2 1 2 3 4 7 12
245 245 243 236 231 234 239 244 246 245 243 244 246 246 245 245 247 247 246 247 250 252 256 257 254 248 240 232 230 230 229 231 233 232 230 227 226 229 231 234 237 237 235 234 234 233 233 235 238 242 244 247 252 257 264 270 276 284 293 300 305 310 317 323 327 329 332 334 337 340 342 343 345 348 352 355 358 359 358 359 0 1 2 4 7
240 240 238 234 231 233 237 242 243 243 243 245 249 249 248 248 250 249 250 252 253 254 258 257 252 245 236 230 230 230 230 232 234 233 229 227 228 230 232 235 238 238 237 235 233 233 234 235 237 241 244 248 252 258 264 270 275 282 290 298 303 308 314 319 320 324 329 332 335 338 339 339 341 344 347 351 354 355 355 356 357 359 0 1 3
243 244 241 237 235 235 236 239 242 245 247 250 252 251 250 250 251 251 252 255 255 255 256 253 245 238 234 231 230 230 232 235 237 233 228 227 230 231 232 235 236 237 236 235 235 236 237 236 238 241 244 249 253 257 263 269 273 278 285 293 303 310 315 317 320 324 328 331 333 334 334 334 336 339 343 347 350 350 350 352 354 356 357 359 0
250 250 247 243 241 240 238 240 245 250 254 256 257 257 256 256 256 254 253 254 255 256 256 251 240 233 231 230 229 230 233 236 236 232 227 227 230 232 233 234 236 237 238 237 237 238 238 238 240 242 245 249 253 257 263 268 273 280 286 291 299 307 313 317 321 323 325 327 329 329 328 330 333 336 340 343 344 345 347 349 351 352 352 354 356
255 254 252 250 248 244 241 243 246 250 255 259 259 260 262 264 262 258 255 254 255 256 255 250 240 233 230 230 229 228 230 232 231 228 226 227 231 232 233 234 235 237 238 238 239 240 240 240 241 242 245 249 253 257 262 267 272 279 286 292 298 303 309 313 317 319 321 324 326 326 326 328 331 332 334 336 337 340 344 346 347 347 347 349 352
257 254 253 252 250 246 243 243 244 246 251 256 257 259 263 265 264 262 257 251 251 253 253 248 241 236 233 233 233 230 227 227 226 225 225 227 229 231 232 234 236 237 238 238 239 240 240 241 242 243 246 250 253 257 262 266 271 277 282 288 295 300 305 309 313 316 319 321 322 323 323 323 325 327 329 332 335 339 342 342 342 342 344 346 347
255 255 254 253 252 248 245 244 243 244 248 251 254 258 261 262 264 266 261 252 248 252 254 250 245 240 237 238 238 233 227 225 224 224 225 227 229 231 233 236 238 239 239 240 240 241 242 242 243 244 247 250 253 257 262 266 273 279 283 289 294 299 303 307 310 312 315 317 319 320 320 322 325 327 329 331 333 335 336 337 337 340 342 341 340
253 254 253 253 253 250 247 246 245 246 250 254 258 262 265 264 263 265 265 259 254 254 253 251 248 243 241 243 244 240 232 226 224 224 225 228 230 232 234 236 238 239 240 241 242 242 243 243 244 245 248 251 254 258 262 267 273 279 284 289 294 298 301 304 307 310 314 317 319 319 321 322 323 324 325 326 327 329 332 334 335 337 338 336 336
254 254 252 251 252 251 250 248 247 249 254 259 262 266 269 268 265 264 263 260 257 254 250 248 247 245 243 245 246 243 236 230 227 226 226 228 230 231 233 235 238 239 241 242 243 244 244 245 246 247 249 252 256 260 264 269 274 280 285 289 293 296 298 301 304 308 312 316 316 317 318 319 319 321 322 321 321 323 328 331 332 333 332 332 334
255 256 254 254 254 254 252 251 250 253 258 260 262 265 268 268 266 263 261 257 255 254 250 246 245 245 245 245 246 244 240 236 233 229 227 228 230 231 233 236 238 240 242 244 245 245 246 246 248 250 252 255 259 263 267 270 274 279 284 288 292 294 296 298 302 306 310 313 313 312 313 314 315 319 322 320 317 318 322 324 327 329 329 329 331
255 257 257 256 255 255 254 251 249 251 254 257 261 265 267 267 266 265 264 258 253 252 253 251 248 247 249 252 253 252 251 248 243 237 233 231 232 233 235 238 239 241 242 243 244 245 246 247 249 252 255 258 261 264 268 272 276 280 283 286 289 292 293 296 300 304 307 308 308 307 310 312 315 320 323 320 314 312 314 315 320 325 326 326 327
253 255 256 255 254 254 253 252 251 251 251 253 258 261 264 266 266 265 265 262 257 257 262 263 260 257 257 257 257 257 255 252 249 244 240 236 234 234 237 239 241 242 243 244 245 246 247 249 251 253 256 259 262 265 269 273 276 280 283 287 289 291 291 294 298 302 304 305 305 306 310 313 315 318 319 316 313 312 312 313 318 321 322 322 322
253 256 258 256 255 255 255 254 255 255 252 252 255 257 260 263 264 263 266 269 268 267 269 271 268 264 261 259 258 257 255 252 249 245 242 239 237 236 237 239 240 241 243 244 246 247 248 249 252 254 256 259 262 266 269 273 276 279 283 286 289 290 291 293 297 301 302 303 303 305 307 309 311 313 314 315 314 312 310 311 314 315 315 316 319
253 257 258 257 257 258 258 257 257 257 255 253 254 255 256 258 260 262 266 270 270 266 267 270 269 266 265 264 263 260 258 256 253 248 242 239 239 238 238 240 241 242 243 245 247 248 248 249 251 254 257 260 264 267 269 272 275 279 283 285 285 286 288 292 296 298 298 298 298 301 303 306 309 311 312 313 311 309 307 308 309 310 311 313 315
257 260 260 260 260 262 265 265 263 259 256 253 251 252 254 256 259 263 269 273 271 265 263 266 266 264 265 265 261 258 257 257 256 251 244 239 238 239 241 242 243 243 243 245 248 249 249 251 254 257 261 264 266 268 270 272 276 279 282 283 283 284 288 292 295 295 294 294 297 300 303 306 309 310 310 310 309 307 306 306 306 306 307 308 309
263 265 264 265 268 270 274 274 268 260 256 253 251 252 253 252 253 260 268 272 270 266 266 268 266 265 267 264 257 253 252 252 253 251 245 240 239 242 244 244 244 244 245 247 249 250 251 253 255 258 262 264 266 268 271 275 278 280 280 281 282 284 288 291 292 291 291 294 297 300 302 305 307 307 308 309 309 308 308 308 307 307 307 307 309
263 264 265 268 272 274 276 277 270 261 254 252 253 256 256 253 253 258 261 262 262 265 271 272 268 267 269 264 255 251 251 250 249 248 245 241 241 243 244 243 244 246 247 248 248 248 248 249 252 256 259 263 267 270 273 275 276 277 278 279 281 285 288 289 289 289 291 294 296 298 300 303 304 305 306 306 306 307 308 308 308 308 308 308 309
267 266 266 268 270 272 273 272 268 260 255 254 256 259 260 260 260 260 258 257 259 266 271 273 271 270 269 263 256 253 253 251 248 247 245 243 241 241 242 243 245 247 247 246 245 245 246 248 252 256 260 264 267 269 270 271 272 274 275 278 282 286 287 288 289 291 292 293 294 296 298 300 301 302 303 303 304 305 306 306 306 306 306 306 306
266 267 268 268 268 268 268 267 266 263 259 256 255 256 258 261 262 262 261 263 267 271 272 273 274 272 269 263 257 253 251 249 248 246 245 243 241 241 243 246 248 248 247 245 246 248 249 251 254 257 260 263 265 266 268 270 272 274 276 280 283 286 287 289 290 290 291 292 294 296 297 298 299 300 301 301 302 303 303 303 304 304 305 305 305
259 262 266 268 270 271 268 265 266 268 265 260 256 256 257 260 262 264 267 273 276 275 274 272 271 268 265 260 255 249 247 247 246 245 244 243 243 245 249 251 251 249 248 247 248 250 251 253 256 258 260 262 264 267 269 271 272 275 280 284 286 287 289 290 290 291 291 293 294 295 295 297 298 299 299 300 300 301 301 302 303 304 304 304 304
254 255 258 261 263 266 265 262 261 265 268 266 262 258 256 259 264 270 275 278 277 275 273 271 268 266 262 257 252 248 246 246 247 246 246 246 248 250 251 251 250 249 248 247 248 249 251 254 256 258 260 262 265 268 270 273 276 281 285 286 287 289 290 291 291 293 294 295 295 295 295 297 297 298 298 298 298 299 301 302 303 303 304 304 304
251 251 253 255 256 256 257 257 261 265 265 262 258 257 259 266 275 279 280 277 274 271 268 267 265 263 258 253 249 247 247 248 248 246 245 247 249 250 250 248 246 245 244 244 246 250 253 256 258 260 261 264 266 268 272 277 281 284 286 286 287 289 290 291 292 294 294 294 295 295 296 296 297 296 296 296 296 298 300 301 302 303 304 305 306
250 248 247 248 249 250 251 256 264 267 264 261 262 266 270 274 276 277 274 271 268 267 266 264 260 255 250 248 247 248 250 251 251 249 249 250 250 247 245 242 240 240 243 247 252 256 258 260 261 263 265 267 269 271 275 279 283 285 286 288 289 290 291 292 293 293 293 294 294 294 295 295 295 295 295 295 296 298 299 300 302 303 304 305 306
246 241 237 238 244 249 253 258 265 268 267 267 270 272 273 272 272 270 268 267 266 267 267 266 263 259 256 255 255 256 256 255 254 253 251 248 245 242 240 239 240 245 251 255 258 259 261 263 265 266 268 269 271 275 278 282 284 286 288 289 291 292 293 293 293 292 292 292 292 292 293 294 295 296 296 297 298 299 300 301 303 304 304 303 303
232 231 232 236 241 246 250 253 259 263 264 264 265 267 269 271 273 272 271 271 270 271 273 272 269 266 262 259 257 256 255 253 250 247 244 243 243 243 243 244 247 251 257 259 260 261 264 265 267 268 270 272 275 278 281 283 286 288 290 292 293 293 292 292 291 291 291 292 292 293 295 296 297 297 298 298 299 300 301 301 301 301 301 302 303
Height
3122 3123 3124 3125 3126 3128 3129 3130 3130 3131 3131 3132 3133 3134 3135 3137 3139 3142 3143 3145 3147 3148 3149 3151 3151 3152 3153 3153 3154 3154 3155 3155 3155 3155 3155 3155 3155 3154 3154 3154 3153 3153 3152 3152 3151 3151 3150 3149 3148 3147 3146 3145 3144 3143 3142 3141 3140 3139 3138 3137 3136 3134 3132 3130 3128 3126 3123 3120 3118 3115 3113 3110 3108 3105 3103 3100 3097 3094 3091 3087 3084 3080 3076 3072 3067
3121 3121 3122 3123 3124 3126 3127 3128 3129 3129 3130 3131 3132 3133 3134 3137 3139 3141 3143 3145 3146 3147 3148 3149 3150 3151 3152 3152 3153 3153 3153 3154 3154 3154 3154 3154 3153 3153 3153 3152 3152 3151 3151 3150 3150 3149 3149 3148 3147 3145 3145 3144 3143 3142 3141 3140 3140 3139 3138 3137 3135 3133 3131 3129 3127 3125 3123 3120 3117 3114 3112 3109 3107 3104 3102 3099 3096 3093 3090 3087 3084 3080 3076 3071 3067
3119 3119 3121 3122 3123 3124 3125 3126 3127 3128 3129 3130 3131 3133 3134 3136 3138 3140 3142 3144 3145 3146 3147 3148 3149 3150 3151 3151 3151 3152 3152 3152 3152 3152 3152 3152 3152 3151 3151 3151 3150 3150 3149 3149 3149 3148 3147 3146 3145 3144 3144 3143 3142 3141 3141 3140 3139 3138 3137 3136 3134 3132 3131 3129 3127 3124 3121 3118 3115 3113 3111 3108 3106 3103 3101 3099 3096 3093 3089 3086 3083 3080 3076 3071 3066
3117 3118 3119 3121 3122 3123 3124 3125 3125 3126 3128 3129 3131 3132 3134 3135 3138 3139 3141 3142 3144 3145 3146 3147 3148 3149 3149 3150 3150 3150 3150 3151 3151 3151 3151 3150 3150 3150 3149 3149 3149 3148 3148 3148 3148 3147 3146 3145 3144 3143 3143 3142 3141 3141 3140 3139 3138 3138 3137 3135 3133 3131 3130 3128 3126 3123 3120 3117 3114 3112 3109 3107 3105 3103 3100 3098 3095 3092 3089 3085 3081 3077 3074 3070 3065
3115 3116 3118 3119 3120 3121 3122 3123 3124 3125 3127 3128 3130 3132 3133 3135 3137 3139 3140 3141 3142 3143 3144 3145 3146 3147 3147 3148 3148 3148 3149 3149 3149 3149 3149 3149 3148 3148 3148 3147 3147 3147 3147 3147 3146 3146 3145 3144 3143 3142 3142 3141 3141 3140 3139 3138 3138 3137 3135 3134 3132 3130 3129 3127 3124 3121 3118 3115 3113 3111 3109 3107 3105 3102 3099 3097 3094 3091 3088 3085 3080 3075 3071 3067 3063
3114 3115 3116 3118 3119 3120 3121 3122 3123 3124 3126 3127 3129 3130 3132 3134 3136 3137 3139 3140 3141 3142 3143 3144 3144 3145 3145 3146 3146 3147 3147 3147 3147 3147 3147 3147 3147 3146 3146 3146 3146 3146 3146 3146 3145 3144 3143 3142 3142 3141 3141 3140 3140 3139 3138 3138 3137 3136 3134 3132 3131 3129 3128 3126 3123 3120 3117 3115 3113 3111 3109 3106 3104 3102 3099 3095 3092 3088 3085 3082 3078 3073 3068 3064 3060
3113 3114 3115 3117 3118 3118 3119 3121 3122 3123 3124 3126 3128 3129 3131 3133 3134 3136 3138 3139 3139 3140 3141 3142 3142 3143 3144 3144 3144 3145 3145 3145 3145 3145 3145 3145 3145 3145 3145 3145 3145 3145 3145 3144 3143 3142 3142 3141 3140 3140 3140 3139 3139 3138 3137 3137 3136 3134 3133 3131 3130 3128 3127 3124 3122 3119 3117 3115 3113 3111 3108 3106 3103 3101 3098 3095 3091 3087 3083 3079 3076 3072 3068 3063 3059
3112 3113 3114 3115 3116 3117 3118 3119 3121 3122 3123 3125 3126 3128 3130 3131 3133 3135 3136 3137 3138 3139 3140 3140 3141 3141 3142 3142 3142 3142 3143 3143 3143 3143 3143 3143 3143 3143 3143 3143 3143 3143 3143 3143 3142 3141 3140 3140 3139 3139 3139 3138 3138 3137 3137 3136 3135 3133 3132 3130 3129 3128 3126 3123 3121 3119 3117 3114 3112 3110 3108 3105 3103 3100 3097 3093 3090 3086 3082 3078 3075 3072 3068 3063 3059
3110 3111 3112 3114 3115 3116 3117 3118 3119 3121 3122 3124 3125 3127 3129 3130 3132 3133 3134 3135 3136 3137 3138 3138 3139 3139 3139 3140 3140 3140 3141 3141 3141 3141 3141 3141 3141 3141 3142 3142 3142 3142 3142 3141 3140 3139 3139 3139 3138 3138 3138 3137 3137 3137 3136 3135 3134 3133 3131 3130 3128 3126 3125 3123 3120 3118 3116 3114 3112 3110 3107 3105 3102 3099 3095 3091 3088 3084 3081 3077 3074 3071 3068 3064 3060
3108 3110 3111 3112 3114 3115 3116 3117 3118 3120 3121 3123 3124 3126 3127 3129 3130 3131 3133 3134 3135 3135 3136 3136 3137 3137 3137 3138 3138 3138 3138 3139 3139 3139 3139 3139 3139 3140 3140 3140 3140 3140 3140 3139 3139 3138 3138 3137 3137 3137 3137 3137 3136 3136 3136 3135 3134 3132 3131 3129 3128 3126 3124 3122 3120 3118 3116 3114 3112 3109 3106 3103 3100 3097 3094 3090 3087 3084 3080 3077 3073 3070 3067 3064 3060
3107 3108 3110 3111 3112 3113 3115 3116 3117 3118 3120 3121 3123 3124 3126 3127 3128 3130 3131 3132 3133 3133 3134 3134 3135 3135 3135 3136 3136 3136 3136 3136 3137 3137 3137 3137 3137 3138 3138 3138 3138 3138 3138 3137 3137 3136 3136 3136 3136 3136 3136 3136 3135 3135 3135 3134 3133 3132 3130 3129 3127 3125 3123 3121 3119 3117 3115 3113 3111 3109 3106 3102 3099 3095 3093 3090 3087 3084 3080 3076 3073 3070 3066 3062 3059
3105 3106 3108 3109 3110 3112 3113 3114 3115 3117 3118 3120 3121 3123 3124 3125 3126 3128 3129 3130 3130 3131 3132 3132 3133 3133 3133 3133 3133 3133 3134 3134 3134 3134 3135 3135 3135 3136 3136 3136 3137 3137 3136 3136 3135 3135 3135 3135 3135 3135 3135 3135 3135 3134 3134 3133 3132 3131 3129 3128 3126 3124 3122 3120 3118 3116 3115 3113 3111 3108 3105 3101 3098 3094 3091 3088 3086 3083 3079 3076 3073 3069 3066 3062 3058
3103 3104 3106 3107 3108 3110 3111 3112 3114 3115 3116 3118 3119 3121 3122 3123 3124 3126 3127 3127 3128 3129 3129 3130 3130 3130 3131 3131 3131 3131 3131 3132 3132 3132 3133 3133 3133 3134 3134 3135 3135 3135 3134 3134 3133 3133 3133 3133 3133 3134 3134 3134 3134 3133 3133 3132 3131 3130 3129 3127 3125 3123 3121 3119 3117 3115 3114 3112 3109 3106 3103 3100 3097 3094 3090 3087 3084 3081 3078 3076 3073 3069 3066 3062 3058
3101 3102 3104 3105 3107 3108 3109 3111 3112 3113 3115 3116 3117 3119 3120 3121 3122 3123 3124 3125 3126 3126 3127 3127 3128 3128 3128 3128 3128 3129 3129 3129 3130 3130 3130 3131 3131 3132 3132 3133 3133 3133 3132 3132 3132 3132 3132 3132 3132 3133 3133 3133 3133 3132 3132 3132 3131 3130 3128 3126 3124 3122 3120 3118 3116 3114 3112 3110 3107 3104 3102 3099 3096 3093 3090 3087 3084 3080 3077 3075 3072 3069 3066 3062 3059
3099 3100 3102 3103 3105 3106 3108 3109 3111 3112 3113 3114 3116 3117 3118 3119 3120 3121 3122 3122 3123 3123 3124 3125 3125 3125 3125 3125 3126 3126 3126 3126 3127 3127 3127 3128 3129 3129 3130 3130 3131 3131 3131 3131 3130 3131 3131 3131 3131 3131 3131 3131 3131 3131 3131 3131 3130 3129 3127 3125 3123 3121 3119 3116 3114 3113 3111 3108 3105 3103 3101 3098 3095 3092 3090 3087 3084 3081 3078 3074 3071 3069 3066 3063 3059
3097 3099 3100 3102 3103 3105 3106 3108 3109 3110 3112 3113 3114 3115 3116 3117 3118 3119 3119 3120 3120 3121 3121 3122 3122 3122 3122 3123 3123 3123 3123 3124 3124 3125 3124 3125 3126 3127 3128 3128 3129 3129 3129 3129 3129 3129 3129 3130 3130 3130 3130 3130 3130 3130 3130 3129 3128 3127 3125 3123 3121 3119 3117 3115 3114 3112 3110 3107 3105 3102 3100 3098 3095 3092 3089 3087 3084 3081 3078 3075 3071 3068 3065 3062 3059
3095 3097 3099 3101 3102 3104 3105 3106 3108 3109 3110 3111 3112 3113 3114 3115 3116 3116 3116 3117 3118 3118 3118 3119 3119 3119 3119 3120 3121 3121 3121 3122 3122 3122 3122 3123 3124 3125 3125 3126 3127 3127 3127 3127 3127 3128 3128 3128 3129 3128 3128 3129 3128 3128 3128 3127 3126 3125 3123 3121 3120 3119 3117 3115 3114 3112 3109 3107 3105 3103 3100 3097 3094 3092 3089 3086 3084 3081 3078 3074 3070 3067 3063 3060 3058
3094 3096 3097 3099 3101 3102 3103 3105 3106 3107 3108 3109 3110 3111 3112 3112 3113 3113 3114 3114 3114 3115 3115 3116 3116 3116 3117 3118 3119 3119 3119 3120 3121 3121 3121 3122 3123 3123 3123 3124 3124 3125 3125 3125 3126 3126 3126 3127 3127 3127 3127 3127 3127 3127 3126 3125 3124 3123 3121 3120 3119 3118 3116 3115 3112 3110 3108 3107 3104 3102 3099 3097 3094 3092 3089 3086 3083 3080 3076 3073 3070 3067 3063 3060 3057
3093 3094 3096 3097 3099 3100 3101 3102 3104 3105 3106 3107 3108 3109 3109 3109 3110 3110 3110 3111 3111 3111 3112 3112 3113 3113 3114 3115 3116 3115 3116 3117 3118 3119 3119 3120 3121 3121 3121 3121 3122 3123 3123 3123 3124 3124 3125 3125 3125 3125 3125 3125 3125 3125 3125 3124 3123 3122 3120 3119 3118 3117 3116 3114 3112 3109 3108 3106 3103 3101 3099 3097 3095 3092 3089 3086 3083 3079 3076 3073 3070 3066 3064 3061 3057
3091 3092 3094 3095 3096 3097 3099 3100 3102 3103 3104 3104 3105 3105 3106 3106 3106 3106 3107 3107 3106 3106 3107 3108 3109 3110 3111 3112 3112 3112 3113 3114 3115 3116 3116 3118 3119 3119 3118 3119 3120 3121 3121 3121 3122 3122 3123 3123 3123 3123 3124 3124 3124 3124 3123 3122 3122 3121 3119 3118 3117 3116 3115 3113 3111 3110 3108 3105 3103 3101 3099 3097 3095 3092 3089 3086 3083 3080 3077 3073 3070 3066 3063 3060 3057
3089 3090 3091 3092 3093 3095 3097 3098 3099 3100 3101 3102 3102 3102 3103 3103 3103 3103 3103 3103 3102 3103 3104 3105 3106 3106 3107 3108 3108 3109 3110 3111 3112 3113 3114 3115 3116 3116 3116 3117 3118 3119 3119 3120 3120 3120 3121 3121 3121 3122 3122 3122 3122 3122 3122 3121 3120 3120 3118 3117 3116 3115 3114 3112 3111 3109 3107 3104 3103 3101 3099 3097 3094 3092 3089 3086 3083 3081 3077 3073 3070 3067 3063 3060 3057
3087 3087 3088 3089 3090 3093 3095 3096 3096 3097 3098 3099 3099 3099 3099 3100 3100 3101 3101 3100 3100 3101 3102 3102 3103 3104 3104 3104 3105 3106 3108 3108 3109 3110 3111 3112 3113 3113 3114 3115 3116 3116 3117 3117 3118 3118 3118 3119 3119 3120 3120 3120 3121 3120 3120 3119 3119 3118 3117 3116 3115 3114 3113 3111 3110 3108 3105 3104 3102 3100 3098 3096 3094 3091 3089 3086 3084 3080 3077 3074 3071 3067 3064 3060 3058
3085 3085 3086 3088 3089 3091 3092 3093 3094 3094 3095 3096 3096 3096 3096 3097 3097 3098 3098 3098 3098 3099 3099 3100 3100 3100 3101 3101 3102 3104 3104 3105 3106 3107 3108 3110 3111 3111 3112 3113 3114 3115 3115 3115 3116 3115 3116 3117 3118 3118 3118 3119 3119 3118 3118 3118 3117 3116 3115 3114 3113 3112 3111 3110 3108 3106 3104 3102 3101 3099 3097 3095 3093 3091 3089 3086 3083 3080 3077 3074 3071 3068 3064 3061 3058
3082 3084 3085 3087 3088 3089 3090 3090 3091 3091 3092 3092 3093 3093 3094 3094 3095 3095 3095 3096 3095 3096 3096 3097 3097 3097 3098 3099 3100 3101 3102 3103 3104 3105 3106 3108 3109 3109 3110 3111 3112 3112 3113 3113 3113 3113 3114 3115 3116 3116 3116 3117 3117 3117 3116 3116 3115 3115 3114 3113 3112 3111 3110 3109 3107 3105 3103 3101 3099 3097 3095 3093 3091 3089 3087 3085 3082 3079 3077 3075 3072 3069 3066 3063 3059
3080 3081 3083 3084 3085 3086 3087 3087 3088 3089 3089 3090 3090 3091 3091 3092 3092 3093 3093 3093 3093 3093 3094 3094 3094 3094 3095 3096 3097 3098 3099 3101 3102 3103 3104 3105 3106 3107 3108 3109 3109 3110 3110 3110 3110 3111 3113 3114 3114 3114 3114 3115 3114 3115 3114 3114 3113 3113 3112 3111 3111 3109 3108 3107 3106 3104 3102 3100 3098 3096 3094 3092 3090 3088 3086 3083 3081 3079 3077 3075 3072 3070 3067 3064 3060
3078 3078 3079 3081 3082 3082 3083 3084 3085 3086 3087 3087 3088 3089 3089 3090 3090 3090 3091 3091 3091 3091 3091 3092 3092 3092 3092 3093 3095 3096 3097 3098 3099 3101 3102 3102 3103 3105 3106 3106 3107 3108 3108 3108 3109 3110 3111 3112 3112 3112 3112 3112 3112 3112 3112 3112 3112 3111 3110 3110 3109 3108 3107 3106 3104 3103 3101 3099 3097 3095 3093 3091 3089 3087 3084 3082 3080 3078 3076 3073 3071 3068 3066 3063 3060
3075 3076 3077 3077 3078 3079 3080 3081 3082 3083 3084 3085 3086 3086 3087 3087 3088 3088 3089 3089 3089 3089 3089 3090 3090 3090 3090 3091 3092 3093 3094 3096 3097 3098 3099 3100 3101 3103 3104 3104 3105 3105 3106 3107 3107 3108 3108 3109 3109 3110 3110 3110 3110 3110 3110 3110 3110 3109 3109 3108 3107 3106 3105 3104 3103 3101 3099 3098 3096 3094 3092 3090 3087 3085 3083 3081 3079 3077 3075 3072 3069 3067 3064 3061 3059
3073 3074 3074 3075 3075 3077 3077 3078 3080 3081 3082 3083 3083 3084 3085 3085 3085 3086 3087 3087 3087 3087 3087 3087 3087 3088 3088 3089 3089 3090 3091 3093 3094 3096 3097 3098 3099 3101 3101 3102 3103 3103 3104 3104 3105 3105 3106 3106 3107 3107 3107 3108 3108 3108 3108 3108 3108 3107 3106 3106 3105 3104 3103 3102 3101 3100 3098 3096 3094 3092 3090 3088 3086 3085 3083 3080 3078 3076 3074 3071 3069 3066 3064 3061 3058
3071 3071 3072 3072 3073 3074 3075 3077 3078 3078 3079 3080 3081 3081 3082 3082 3082 3083 3084 3084 3084 3084 3084 3085 3085 3085 3086 3086 3087 3087 3089 3090 3092 3094 3095 3097 3097 3098 3099 3099 3100 3101 3101 3102 3102 3102 3103 3104 3104 3104 3105 3105 3105 3105 3106 3106 3105 3105 3104 3104 3103 3102 3101 3100 3099 3097 3096 3094 3092 3090 3089 3087 3085 3083 3081 3079 3077 3075 3073 3070 3068 3065 3063 3061 3058
3069 3069 3070 3070 3071 3072 3074 3075 3076 3076 3077 3077 3078 3078 3079 3080 3080 3081 3081 3081 3081 3082 3082 3082 3082 3082 3083 3083 3083 3084 3086 3087 3089 3091 3093 3094 3094 3095 3096 3097 3097 3098 3099 3099 3099 3100 3101 3101 3102 3102 3103 3103 3103 3103 3103 3103 3102 3102 3102 3101 3101 3101 3100 3098 3097 3095 3094 3092 3091 3089 3087 3085 3083 3081 3080 3078 3076 3074 3072 3069 3067 3064 3062 3060 3058
3067 3068 3068 3069 3070 3071 3072 3073 3074 3074 3075 3075 3075 3076 3077 3077 3078 3078 3078 3078 3079 3079 3079 3079 3079 3079 3079 3079 3079 3081 3082 3084 3086 3088 3090 3091 3091 3092 3093 3094 3095 3096 3097 3097 3097 3097 3098 3099 3099 3100 3100 3100 3100 3101 3100 3100 3100 3100 3099 3099 3099 3099 3098 3097 3095 3094 3092 3090 3089 3087 3085 3083 3081 3080 3078 3076 3074 3072 3070 3068 3066 3063 3061 3059 3057
3065 3066 3066 3067 3068 3068 3069 3070 3071 3071 3072 3072 3073 3073 3074 3075 3075 3075 3075 3076 3076 3076 3076 3076 3076 3077 3076 3076 3076 3077 3079 3080 3082 3085 3086 3087 3087 3088 3089 3091 3092 3093 3094 3094 3094 3095 3095 3096 3097 3097 3098 3098 3098 3098 3098 3098 3098 3098 3097 3097 3096 3096 3095 3094 3093 3092 3090 3088 3087 3085 3083 3082 3080 3078 3076 3074 3072 3070 3068 3066 3064 3062 3060 3058 3056
3063 3064 3064 3065 3065 3066 3067 3068 3068 3069 3069 3070 3070 3070 3071 3072 3072 3072 3072 3073 3073 3073 3073 3073 3073 3074 3074 3073 3073 3074 3076 3077 3079 3081 3082 3082 3082 3084 3086 3088 3089 3090 3091 3091 3091 3092 3093 3094 3094 3095 3095 3095 3095 3095 3096 3096 3096 3095 3095 3094 3094 3093 3093 3092 3091 3090 3088 3086 3085 3083 3081 3079 3078 3076 3074 3072 3070 3068 3066 3064 3062 3060 3058 3056 3054
3061 3062 3063 3063 3063 3064 3065 3065 3066 3066 3067 3067 3067 3067 3067 3068 3069 3069 3069 3070 3070 3069 3069 3070 3070 3070 3070 3070 3070 3072 3073 3074 3075 3076 3076 3077 3079 3081 3083 3085 3086 3087 3088 3088 3089 3090 3091 3091 3092 3092 3092 3092 3092 3092 3093 3094 3094 3093 3093 3092 3092 3091 3090 3089 3088 3087 3085 3084 3082 3080 3079 3077 3075 3074 3072 3070 3068 3066 3064 3062 3060 3059 3057 3055 3053
3058 3060 3061 3061 3061 3062 3062 3063 3063 3064 3065 3065 3066 3065 3064 3065 3066 3066 3066 3066 3066 3066 3066 3066 3066 3067 3067 3066 3067 3068 3069 3069 3069 3071 3072 3074 3076 3078 3080 3081 3082 3084 3085 3085 3086 3087 3088 3088 3089 3089 3089 3089 3090 3090 3090 3091 3091 3091 3090 3090 3089 3089 3088 3087 3085 3084 3083 3082 3080 3078 3077 3075 3074 3072 3070 3068 3065 3063 3062 3060 3059 3057 3055 3053 3051
3056 3057 3058 3059 3059 3059 3060 3060 3061 3062 3063 3063 3063 3062 3061 3062 3062 3062 3062 3063 3063 3062 3062 3062 3061 3062 3062 3062 3061 3063 3065 3065 3066 3068 3069 3071 3073 3075 3077 3078 3080 3081 3082 3083 3084 3084 3085 3085 3086 3086 3087 3087 3087 3087 3087 3088 3088 3088 3088 3087 3087 3086 3085 3084 3083 3082 3081 3079 3078 3076 3075 3073 3071 3069 3067 3065 3063 3062 3060 3058 3056 3055 3053 3051 3049
3053 3054 3055 3056 3056 3057 3058 3058 3059 3059 3060 3060 3059 3059 3059 3058 3058 3058 3058 3059 3058 3057 3057 3058 3058 3059 3059 3059 3060 3062 3064 3065 3066 3067 3069 3070 3071 3073 3074 3075 3077 3078 3079 3080 3081 3081 3082 3083 3083 3084 3084 3085 3085 3085 3085 3085 3085 3085 3084 3084 3084 3083 3083 3082 3081 3079 3078 3077 3076 3074 3073 3071 3069 3067 3065 3064 3062 3061 3058 3056 3054 3053 3051 3049 3047
3051 3051 3052 3053 3054 3054 3055 3055 3055 3056 3056 3056 3056 3056 3056 3055 3054 3054 3054 3055 3055 3056 3056 3056 3057 3057 3057 3058 3059 3061 3062 3063 3064 3066 3067 3068 3069 3070 3071 3073 3074 3075 3076 3077 3078 3078 3079 3080 3081 3081 3082 3082 3082 3082 3082 3082 3082 3082 3081 3081 3081 3080 3080 3079 3078 3077 3075 3074 3073 3071 3070 3068 3066 3065 3063 3062 3061 3059 3056 3054 3052 3050 3048 3046 3044
3047 3048 3049 3050 3050 3051 3052 3052 3052 3052 3052 3053 3053 3052 3052 3052 3052 3051 3051 3051 3052 3054 3054 3054 3054 3054 3054 3055 3056 3057 3058 3060 3061 3063 3064 3066 3067 3068 3069 3070 3071 3072 3073 3074 3075 3076 3077 3077 3078 3078 3078 3079 3079 3079 3079 3079 3079 3079 3079 3078 3078 3077 3076 3076 3075 3073 3072 3071 3070 3069 3067 3066 3064 3063 3061 3059 3058 3056 3054 3052 3050 3048 3046 3044 3041
3044 3045 3046 3047 3047 3048 3048 3048 3049 3049 3049 3049 3049 3049 3049 3050 3050 3049 3049 3049 3050 3050 3050 3051 3052 3051 3051 3052 3054 3055 3056 3057 3059 3060 3061 3063 3064 3065 3066 3067 3068 3069 3070 3071 3072 3072 3073 3074 3075 3075 3075 3076 3076 3076 3076 3076 3076 3076 3076 3075 3075 3074 3074 3073 3072 3071 3070 3068 3067 3066 3064 3063 3061 3060 3058 3057 3055 3054 3052 3050 3048 3046 3043 3041 3039
3041 3042 3043 3043 3044 3044 3044 3045 3045 3045 3045 3046 3046 3046 3046 3047 3047 3047 3047 3046 3047 3047 3047 3047 3048 3048 3048 3050 3051 3052 3052 3054 3055 3056 3057 3058 3060 3061 3062 3064 3065 3066 3067 3068 3069 3069 3070 3071 3072 3072 3073 3073 3073 3073 3073 3073 3073 3073 3073 3072 3072 3071 3071 3070 3068 3067 3066 3065 3064 3062 3061 3060 3058 3057 3055 3054 3052 3051 3049 3047 3045 3043 3041 3039 3036
3038 3039 3039 3040 3040 3040 3040 3041 3041 3041 3042 3042 3043 3043 3043 3042 3043 3044 3044 3044 3044 3043 3043 3043 3044 3044 3045 3046 3048 3047 3048 3049 3050 3051 3053 3055 3057 3058 3060 3061 3062 3063 3064 3065 3066 3067 3068 3069 3069 3069 3070 3070 3070 3070 3071 3070 3070 3070 3069 3069 3068 3068 3067 3066 3065 3064 3063 3061 3060 3059 3058 3056 3055 3054 3052 3051 3049 3047 3045 3043 3041 3039 3037 3035 3033
3035 3035 3035 3036 3036 3037 3037 3037 3037 3038 3038 3039 3039 3039 3039 3040 3040 3040 3041 3041 3040 3040 3040 3040 3041 3041 3042 3043 3044 3043 3044 3045 3046 3048 3050 3052 3054 3055 3056 3057 3058 3059 3061 3062 3063 3063 3064 3065 3066 3066 3066 3067 3067 3067 3067 3067 3067 3066 3065 3065 3065 3064 3063 3062 3061 3060 3059 3058 3057 3056 3055 3053 3052 3050 3049 3047 3045 3043 3041 3039 3037 3035 3033 3031 3028
3031 3031 3032 3032 3033 3033 3034 3034 3034 3035 3036 3037 3037 3037 3037 3037 3037 3037 3037 3037 3037 3037 3037 3037 3038 3038 3039 3040 3041 3041 3041 3042 3044 3045 3047 3050 3051 3052 3052 3054 3055 3056 3057 3058 3059 3060 3061 3062 3062 3063 3063 3064 3064 3064 3063 3063 3062 3062 3062 3062 3061 3060 3060 3059 3058 3057 3056 3055 3054 3052 3051 3050 3048 3047 3045 3043 3041 3039 3037 3035 3033 3031 3029 3027 3024
3027 3027 3028 3029 3029 3030 3031 3031 3032 3033 3034 3034 3034 3034 3035 3034 3034 3034 3035 3035 3035 3035 3035 3035 3035 3036 3037 3037 3038 3038 3039 3040 3041 3043 3045 3046 3048 3049 3050 3051 3052 3053 3054 3055 3056 3057 3058 3058 3059 3060 3060 3060 3060 3060 3059 3059 3059 3059 3059 3059 3058 3057 3056 3055 3054 3053 3052 3051 3050 3049 3048 3046 3045 3043 3041 3039 3038 3036 3034 3032 3029 3027 3025 3022 3019
3023 3024 3025 3025 3026 3028 3028 3029 3030 3031 3032 3031 3031 3032 3033 3033 3033 3032 3032 3033 3033 3033 3033 3033 3033 3033 3034 3034 3035 3036 3037 3038 3039 3041 3042 3044 3045 3046 3047 3048 3049 3050 3051 3052 3053 3054 3055 3056 3056 3057 3057 3057 3056 3056 3056 3056 3056 3056 3056 3055 3054 3053 3052 3051 3050 3049 3048 3047 3046 3045 3044 3042 3041 3039 3037 3035 3034 3032 3030 3028 3025 3023 3020 3017 3015
3020 3021 3022 3023 3024 3025 3026 3027 3027 3028 3029 3029 3029 3030 3030 3030 3030 3030 3030 3030 3030 3030 3030 3030 3030 3031 3031 3032 3033 3034 3034 3036 3037 3039 3040 3041 3042 3044 3044 3045 3046 3047 3048 3049 3051 3052 3052 3053 3053 3053 3053 3053 3053 3053 3053 3052 3053 3053 3053 3052 3050 3050 3049 3048 3047 3046 3045 3044 3043 3041 3040 3038 3037 3035 3033 3031 3029 3027 3025 3023 3020 3018 3015 3012 3009
3016 3017 3018 3020 3021 3022 3023 3024 3025 3025 3026 3026 3027 3027 3027 3027 3027 3027 3028 3028 3028 3028 3028 3028 3028 3028 3029 3030 3030 3031 3032 3034 3035 3036 3037 3038 3039 3040 3041 3042 3043 3045 3046 3047 3048 3049 3050 3050 3050 3050 3050 3051 3050 3050 3050 3050 3049 3049 3049 3048 3047 3046 3045 3044 3043 3042 3041 3040 3039 3037 3036 3034 3032 3031 3029 3027 3025 3022 3020 3017 3015 3012 3009 3006 3004
3013 3014 3016 3017 3018 3019 3021 3022 3022 3023 3023 3024 3024 3025 3025 3025 3025 3025 3025 3025 3025 3025 3025 3025 3025 3026 3027 3028 3028 3029 3030 3031 3033 3033 3034 3035 3036 3037 3039 3040 3041 3043 3044 3045 3046 3046 3047 3047 3047 3047 3048 3048 3048 3047 3047 3047 3046 3046 3045 3044 3044 3043 3042 3041 3040 3039 3038 3036 3035 3033 3031 3030 3028 3026 3024 3022 3019 3017 3015 3012 3009 3006 3003 3000 2997
3011 3012 3014 3015 3016 3018 3019 3019 3020 3020 3021 3021 3022 3022 3022 3022 3022 3022 3022 3022 3022 3022 3022 3023 3023 3024 3024 3025 3026 3027 3028 3029 3030 3031 3031 3033 3034 3035 3037 3039 3040 3041 3042 3043 3044 3044 3044 3044 3045 3045 3045 3045 3045 3044 3044 3043 3043 3042 3041 3041 3040 3039 3038 3037 3036 3035 3034 3032 3030 3029 3027 3025 3023 3021 3019 3016 3014 3011 3009 3006 3003 3000 2997 2994 2990
3010 3011 3012 3013 3015 3016 3017 3017 3018 3018 3018 3019 3019 3019 3019 3019 3019 3019 3019 3020 3020 3020 3021 3021 3021 3022 3023 3024 3024 3025 3026 3027 3028 3029 3030 3031 3033 3035 3036 3037 3039 3040 3040 3041 3041 3042 3042 3042 3042 3042 3042 3042 3042 3041 3041 3040 3039 3039 3038 3037 3036 3036 3035 3034 3032 3031 3029 3028 3026 3024 3022 3020 3018 3016 3013 3011 3008 3005 3002 2999 2996 2993 2990 2987 2984